Change the Weather History Date:

Monday, January 2, 2012

  Actual Average (KPCZ) Record (KPCZ)
Temperature  
Mean Temperature 14 °F -  
Max Temperature 20 °F 25 °F 42 °F (1950)
Min Temperature 6 °F 7 °F -20 °F (1979)
Degree Days  
Heating Degree Days 52    
Moisture  
Dew Point 8 °F    
Average Humidity 71    
Maximum Humidity 86    
Minimum Humidity 57    
Precipitation  
Precipitation 0.00 in - - ()
Sea Level Pressure  
Sea Level Pressure 30.24 in    
Wind  
Wind Speed 15 mph (NW)    
Max Wind Speed 23 mph    
Max Gust Speed 36 mph    
Visibility 8 miles    
Events Snow    
Averages and records for this station are not official NWS values.
T = Trace of Precipitation, MM = Missing Value Source: NWS Daily Summary

Daily Weather History Graph

Daily Weather History Graph

Search for Another Location

Airport or City:

Trip Planner

Search our weather history database for the weather conditions in past years. The results will help you decide how hot, cold, wet, or windy it might be!

Date:

Astronomy

Jan. 02, 2012 Rise Set
Actual Time 7:32 AM CST 4:30 PM CST
Civil Twilight 6:59 AM CST 5:03 PM CST
Nautical Twilight 6:22 AM CST 5:39 PM CST
Astronomical Twilight 5:47 AM CST 6:14 PM CST
Moon 11:51 AM CST (1/2) 1:19 AM CST (1/2)
Length of Visible Light 10h 03m
Length of Day
8h 58m
Waxing Gibbous, 64% of the Moon is Illuminated
Jan 2
Waxing Gibbous
Jan 9
Full
Jan 16
Last Quarter
Jan 23
New
Jan 30
First Quarter

Hourly Weather History & Observations

Time (CST) Temp. Windchill Dew Point Humidity Pressure Visibility Wind Dir Wind Speed Gust Speed Precip Events Conditions
12:26 AM 19.4 °F 5.5 °F 12.2 °F 74% 30.05 in 10.0 mi NW 15.0 mph 26.5 mph 0.00 in Snow Light Snow
12:46 AM 19.4 °F 4.1 °F 12.2 °F 74% 30.05 in 7.0 mi WNW 18.4 mph 31.1 mph 0.00 in Snow Light Snow
2:38 AM 17.6 °F 3.7 °F 12.2 °F 79% 30.09 in 3.0 mi NW 13.8 mph - 0.00 in Snow Light Snow
2:56 AM 17.1 °F 3.0 °F 13.1 °F 84% 30.12 in 2.5 mi NW 13.8 mph 24.2 mph 0.00 in Snow Light Snow
3:04 AM 17.6 °F 2.7 °F 12.2 °F 79% 30.09 in 3.0 mi NW 16.1 mph 23.0 mph 0.00 in Snow Light Snow
3:11 AM 17.6 °F 3.2 °F 12.2 °F 79% 30.09 in 2.5 mi NW 15.0 mph 26.5 mph 0.00 in Snow Light Snow
3:20 AM 17.6 °F 3.2 °F 12.2 °F 79% 30.09 in 4.0 mi NW 15.0 mph - 0.00 in Snow Light Snow
3:56 AM 16.2 °F 1.3 °F 12.0 °F 84% 30.12 in 2.5 mi NW 15.0 mph - 0.00 in Snow Light Snow
4:03 AM 15.8 °F 1.4 °F 12.2 °F 86% 30.09 in 3.0 mi WNW 13.8 mph 21.9 mph 0.00 in Snow Light Snow
4:56 AM 16.2 °F 1.3 °F 10.0 °F 77% 30.13 in 8.0 mi NW 15.0 mph 23.0 mph 0.00 in Snow Light Snow
5:56 AM 16.2 °F 0.8 °F 9.1 °F 74% 30.14 in 10.0 mi NW 16.1 mph 24.2 mph 0.00 in Snow Light Snow
6:24 AM 15.8 °F 0.3 °F 8.6 °F 73% 30.11 in 10.0 mi NW 16.1 mph 24.2 mph 0.00 in   Scattered Clouds
6:56 AM 15.1 °F -2.0 °F 7.2 °F 71% 30.15 in 10.0 mi NW 19.6 mph 25.3 mph 0.00 in   Clear
7:56 AM 15.1 °F -0.6 °F 7.2 °F 71% 30.18 in 10.0 mi NW 16.1 mph 25.3 mph N/A   Clear
9:56 AM 17.1 °F -0.6 °F 7.2 °F 65% 30.23 in 10.0 mi NW 23.0 mph 29.9 mph N/A   Mostly Cloudy
10:37 AM 17.6 °F 2.2 °F 6.8 °F 63% 30.21 in 10.0 mi NNW 17.3 mph 25.3 mph N/A   Overcast
10:56 AM 18.1 °F 3.4 °F 7.2 °F 62% 30.25 in 10.0 mi NNW 16.1 mph 28.8 mph N/A   Overcast
11:16 AM 17.6 °F 0.9 °F 6.8 °F 63% 30.21 in 10.0 mi NNW 20.7 mph 35.7 mph N/A   Overcast
11:23 AM 17.6 °F 2.7 °F 6.8 °F 63% 30.21 in 10.0 mi NNW 16.1 mph 29.9 mph 0.00 in Snow Light Snow
11:56 AM 18.1 °F 2.9 °F 7.2 °F 62% 30.25 in 10.0 mi NNW 17.3 mph 25.3 mph 0.00 in Snow Light Snow
1:56 PM 20.1 °F 4.2 °F 8.1 °F 60% 30.29 in 10.0 mi NNW 20.7 mph 28.8 mph 0.00 in   Mostly Cloudy
2:56 PM 19.0 °F 3.6 °F 6.1 °F 57% 30.32 in 10.0 mi NNW 18.4 mph 26.5 mph N/A   Mostly Cloudy
3:56 PM 18.1 °F 3.9 °F 6.1 °F 59% 30.35 in 10.0 mi NNW 15.0 mph 23.0 mph N/A   Clear
4:56 PM 16.2 °F 2.5 °F 6.1 °F 65% 30.38 in 10.0 mi NNW 12.7 mph - N/A   Partly Cloudy
5:56 PM 16.2 °F 3.2 °F 7.2 °F 68% 30.41 in 10.0 mi NW 11.5 mph 19.6 mph N/A   Overcast
6:56 PM 15.1 °F 3.3 °F 6.1 °F 68% 30.43 in 10.0 mi NW 9.2 mph - N/A   Overcast
7:56 PM 12.0 °F 0.5 °F 3.0 °F 67% 30.44 in 10.0 mi NW 8.1 mph - N/A   Mostly Cloudy
8:56 PM 9.1 °F -1.9 °F 2.1 °F 73% 30.45 in 10.0 mi NW 6.9 mph - N/A   Clear
9:56 PM 8.1 °F -2.0 °F 1.0 °F 73% 30.45 in 10.0 mi NW 5.8 mph - N/A   Clear
10:56 PM 7.2 °F -5.4 °F 0.1 °F 73% 30.46 in 10.0 mi NW 8.1 mph - N/A   Clear
11:56 PM 6.1 °F -5.6 °F 0.1 °F 77% 30.47 in 10.0 mi NW 6.9 mph - N/A   Clear